Retour au catalogue

USA 445

ActifMilitaireVLEO
NORAD 62344·PAYLOAD·🇺🇸 United States

Lancé Dec 17, 2024 depuis Vandenberg Space Force Base

Loading…

Prochains Passages (prochaines 24 heures)

TLE

PériméSource: Mike McCants

Époque: Aug 19, 2026, 20:50 UTC

1 62344U 24243E   26231.86850236 0.00000000  00000-0  00000-0 0    09
2 62344  70.0205 137.3017 0002000  96.1054 263.8946 14.96713236    04

Suivez USA 445 en temps réel avec AllMySat

Download on the App Store